Location: ???????
(55.4362°N, 38.1183°E)
Time: 00:50:30
(UTC+00:00)

METEOR M2 - Pass Details

Date: 29 November 2021
Orbit: 818 x 827 km, 98.4° (Epoch: 28 January)

Event Time Altitude Azimuth Distance (km) Brightness Sun altitude
Rises 14:19:25 0° 125° (SE) 3,363 ? -10.0°
Reaches altitude 10° 14:22:01 10° 115° (ESE) 2,433 ? -10.4°
Maximum altitude 14:26:36 30° 57° (ENE) 1,467 ? -11.0°
Drops below altitude 10° 14:31:12 10° 358° (N) 2,441 ? -11.6°
Sets 14:33:48 0° 348° (NNW) 3,377 ? -11.9°
